Location: Kirchberg
(47.4114°N, 9.0398°E)
Time: 03:37:57
(UTC+00:00)

Cosmos 1943 Rocket - Pass Details

Date: 03 March 2021
Orbit: 811 x 844 km, 71.0° (Epoch: 16 April)

Event Time Altitude Azimuth Distance (km) Brightness Sun altitude
Rises 18:59:50 0° 338° (NNW) 3,415 5.8 -19.0°
Reaches altitude 10° 19:05:06 10° 19° (NNE) 2,475 4.6 -19.8°
Maximum altitude 19:06:00 10° 28° (NNE) 2,450 4.4 -20.0°
Drops below altitude 10° 19:06:53 10° 37° (NE) 2,473 4.4 -20.1°
Enters shadow 19:07:05 10° 39° (NE) 2,485 4.4 -20.2°
